Orbital Elements at Epoch 2459200.5 (2020-Dec-17.0) TDB
Reference: JPL 21 (heliocentric ecliptic J2000)
Element | Value | Uncertainty (1-sigma) | Units |
e | .2516305955167785 | 4.6937e-08 | |
a | 2.615530987016566 | 1.0292e-08 | au |
q | 1.957383367161 | 1.2247e-07 | au |
i | 4.791468282200097 | 5.1815e-06 | deg |
node | 172.7267661777799 | 4.3612e-05 | deg |
peri | 193.0879020974226 | 4.4245e-05 | deg |
M | 184.8880508233668 | 7.3141e-06 | deg |
tp | 2459952.038982964583 (2023-Jan-07.53898296) | 3.3511e-05 | TDB |
period | 1545.034677184396 4.23 | 9.1198e-06 2.497e-08 | d yr |
n | .2330044790036999 | 1.3753e-09 | deg/d |
Q | 3.273678606872133 | 1.2882e-08 | au |
|
| | Orbit Determination Parameters
Additional Information
|